Presure
98 130 152 110 131 143 160 153 120 122 123 154 111 103 117 138 144 161 167 125 146 144 148 151 152 157 149 95 110 122 103 137 128 151 154 145 145 108 97 90 108 90 158
133 150 119 111 123 157 111 126 160 116 112 118 143 163 172 176 171 159 164 157 171 97 149 143 149 149 149 90 151 150 145 142 144 108 160 152 152 146 94 85 91 143 92
90 155 118 105 148 112 146 111 108 153 149 132 160 162 183 170 154 164 149 156 176 136 139 142 144 144 128 107 145 144 150 141 153 142 123 135 148 158 151 150 140 101 92
140 113 131 123 142 108 111 109 107 103 160 107 145 138 102 129 133 136 141 140 132 126 90 148 146 153 142 149 144 146 144 144 144 148 151 154 116 158 132 150 113 152 107
127 103 107 115 135 107 108 105 113 132 97 147 170 183 163 165 160 148 171 135 177 113 143 148 146 159 132 140 145 141 140 140 160 100 155 147 153 154 153 161 159 155 160
128 112 103 109 100 135 105 101 96 100 96 97 97 161 108 136 162 153 163 98 153 125 129 152 152 151 150 145 148 139 141 142 151 159 148 136 160 169 102 147 97 92 91
121 136 101 102 111 150 102 102 102 101 100 135 101 170 107 101 102 103 102 103 101 96 138 141 110 133 126 144 132 109 142 134 143 143 151 160 96 107 102 114 116 111 142
139 117 130 124 97 100 100 100 101 99 98 96 97 96 99 98 96 99 101 102 137 121 96 96 126 99 98 97 119 133 124 140 152 128 128 155 215 226 227 158 149 157 181
167 98 160 153 133 140 95 97 95 95 94 96 94 97 109 120 99 101 101 96 97 96 94 95 96 96 97 96 97 101 101 102 95 195 128 161 127 208 221 98 203 179 148
99 97 101 94 101 142 96 96 91 97 97 96 96 94 99 152 140 100 99 98 96 96 94 98 98 135 97 97 184 101 96 89 99 213 93 84 215 218 108 174 94 116 132
150 165 98 153 125 119 90 94 90 94 96 160 96 99 93 98 94 112 111 105 119 100 100 109 108 96 94 90 114 128 160 159 111 90 88 118 138 232 105 94 90 198 195
165 167 177 99 96 90 90 94 96 94 97 104 91 134 156 162 116 112 142 118 94 141 133 103 94 96 129 156 167 152 129 91 84 110 190 178 114 184 249 188 194 224 214
168 153 102 152 92 89 93 102 98 129 102 152 156 166 152 148 153 103 141 94 99 89 125 94 137 190 127 85 168 79 171 142 101 103 140 96 103 115 310 264 261 257 101
156 163 97 96 99 142 153 105 98 106 142 145 144 94 144 122 149 142 160 131 124 163 162 181 154 164 85 77 197 71 85 98 135 187 184 152 271 301 327 315 305 299 289
101 135 150 130 111 95 161 97 97 116 137 149 146 71 103 106 87 78 115 128 178 72 83 70 119 158 81 113 87 112 80 200 86 144 222 295 270 256 90 277 301 203 276
167 164 108 154 159 138 155 157 162 158 96 73 107 77 92 119 79 78 84 81 115 84 105 77 140 98 88 114 104 86 141 210 84 219 226 284 271 257 244 281 289 261 297
146 172 87 84 80 141 73 75 81 72 78 82 76 66 66 84 85 88 158 169 87 91 95 97 74 151 173 82 77 207 80 204 238 212 245 134 231 279 261 256 243 239 241
152 80 99 88 86 74 114 80 138 126 132 155 100 141 88 101 101 104 167 156 157 157 174 169 188 71 134 128 102 197 182 209 233 202 216 263 259 238 233 240 244 245 225
88 90 71 64 77 79 85 82 84 96 144 86 96 117 147 160 169 167 168 183 177 167 149 138 135 140 211 208 196 183 181 204 207 191 208 256 267 224 222 239 230 229 236
136 76 63 78 158 77 141 161 164 167 173 161 150 160 159 162 182 181 195 170 174 193 133 126 150 200 204 202 192 182 190 212 223 194 200 171 261 231 224 191 220 221 214
83 78 81 84 160 181 163 117 159 173 163 153 152 160 169 178 180 191 201 148 128 139 188 151 190 188 191 188 177 181 196 217 219 201 192 240 257 229 215 189 221 205 209
148 143 97 134 135 148 142 145 148 156 143 151 177 153 151 168 191 178 143 185 146 183 183 186 178 190 183 174 183 189 218 199 206 201 180 186 250 227 212 211 202 209 204
150 166 144 155 144 143 143 188 172 139 168 145 143 142 166 163 199 192 193 187 180 175 183 183 191 196 184 192 208 211 205 203 203 184 170 194 252 254 214 207 192 202 191
192 192 144 133 133 190 189 177 134 163 173 185 165 189 193 188 190 183 183 176 173 180 186 186 195 199 199 199 205 199 207 200 201 183 188 215 250 193 213 202 212 209 187
130 126 129 152 191 188 185 187 187 138 188 188 144 188 182 175 182 174 170 178 180 174 180 196 182 204 200 192 203 208 207 145 197 194 225 253 246 238 233 211 195 209 193
185 182 184 190 187 189 189 189 188 188 186 183 179 181 181 174 170 180 179 176 178 163 189 196 198 196 197 201 200 203 160 183 252 280 259 165 191 224 186 210 189 197 200
Wind_Speed
14 24 29 14 19 22 24 23 12 13 12 18 7 7 14 20 20 24 24 14 21 20 18 19 20 23 22 14 16 18 15 22 22 27 29 29 29 18 14 15 17 15 29
25 33 22 15 20 28 11 14 26 11 10 13 19 26 25 26 26 25 26 22 24 11 21 19 20 22 23 15 25 25 26 25 27 19 29 31 32 33 15 17 17 32 16
14 36 25 13 29 15 25 12 10 27 23 19 24 26 27 27 26 27 23 25 29 22 21 21 22 24 23 21 27 28 28 27 31 29 25 29 31 35 32 37 34 19 16
34 24 27 25 30 15 16 14 12 11 29 12 22 20 12 19 19 19 22 24 21 20 16 25 24 27 26 29 28 29 29 32 34 35 36 38 26 39 31 36 22 40 23
29 21 21 22 27 17 15 13 17 23 13 25 30 31 29 30 29 28 31 23 32 19 25 27 27 30 29 30 31 31 32 35 37 25 40 41 40 44 41 43 42 40 43
34 26 21 24 17 28 16 16 16 15 16 14 15 29 18 25 31 30 31 17 28 25 26 29 29 29 29 31 32 34 36 37 40 44 44 42 45 44 22 43 21 24 24
31 39 23 22 22 37 17 18 18 17 18 26 18 32 20 20 22 23 24 24 23 23 28 29 28 32 29 32 33 28 37 36 42 45 48 52 23 25 28 29 30 31 42
41 33 38 34 19 20 20 20 19 20 19 18 20 20 23 22 23 26 27 27 33 29 26 26 32 27 26 27 31 40 35 44 46 37 30 35 48 48 45 50 49 49 54
56 26 53 47 36 37 19 20 19 19 17 21 20 23 27 29 27 30 29 26 27 28 29 30 31 31 32 31 31 32 28 27 21 47 40 53 44 49 50 28 52 48 50
30 27 26 22 25 40 20 21 17 23 23 23 25 24 29 37 34 29 31 32 31 32 32 36 37 39 37 39 56 40 27 16 30 56 23 24 57 55 35 56 35 42 47
49 56 29 45 35 34 19 23 20 23 26 41 28 32 25 33 27 33 37 37 41 38 39 37 39 43 41 34 45 52 51 52 32 19 25 43 55 54 37 33 35 55 55
57 56 54 28 23 22 22 25 28 25 30 38 25 41 44 45 30 30 41 39 33 41 43 40 42 45 51 50 58 44 47 15 26 30 57 61 49 58 56 60 47 57 58
58 53 35 50 22 21 25 37 34 36 39 46 48 51 40 41 45 36 43 32 41 32 44 43 49 67 46 5 58 20 49 51 40 38 63 40 44 44 39 50 51 49 42
56 58 31 31 33 47 51 41 36 41 41 42 38 31 40 37 47 44 56 47 51 60 59 65 56 60 37 24 66 30 27 31 67 51 61 38 44 37 30 31 32 35 40
26 46 52 47 35 29 55 35 34 45 42 48 44 13 35 34 30 28 45 46 67 16 31 20 48 55 25 49 24 42 34 57 38 52 54 42 36 39 39 33 27 55 36
62 63 44 57 59 45 54 56 57 57 29 26 35 29 35 46 28 36 40 38 51 39 46 26 55 58 43 58 38 31 52 60 42 58 59 46 38 33 36 22 19 26 19
56 64 21 25 19 50 10 21 26 24 30 31 32 13 13 41 42 47 67 69 49 53 54 62 30 60 67 34 33 66 37 63 70 61 58 38 46 31 31 30 28 27 25
58 20 41 26 27 15 54 27 53 44 54 58 47 61 48 51 53 55 70 66 65 67 66 66 73 24 64 62 39 65 67 68 69 60 61 50 42 36 38 30 26 26 31
31 25 18 14 29 33 38 41 46 56 53 47 53 58 65 71 72 72 72 72 74 66 63 59 62 65 73 70 65 64 67 69 67 58 61 51 45 44 42 30 26 24 22
47 23 13 31 63 36 57 64 65 66 65 64 67 70 72 73 70 73 68 67 70 70 61 65 69 73 72 69 67 66 68 70 67 63 61 57 45 40 38 44 29 27 25
39 35 42 46 66 64 65 62 65 66 67 66 70 74 74 73 73 71 67 68 62 63 72 70 71 72 71 69 68 69 71 68 65 64 59 53 47 40 40 50 27 35 27
56 57 45 55 54 59 56 59 60 66 64 71 69 73 71 71 70 68 69 70 67 74 75 74 76 75 73 71 72 72 71 68 66 64 55 57 49 48 50 39 39 32 35
54 62 61 63 59 60 62 64 64 63 69 71 68 67 68 66 67 70 71 72 76 81 78 78 78 77 75 75 73 71 69 68 67 65 60 65 51 45 51 48 49 40 49
57 58 53 54 57 61 62 62 65 67 68 69 67 68 67 68 69 73 73 78 82 81 81 81 80 78 76 74 73 73 71 70 68 66 67 67 52 57 50 50 46 40 53
56 57 58 59 59 61 64 64 62 67 64 66 74 67 70 74 74 77 82 81 82 83 84 83 82 78 77 78 76 74 74 65 73 71 61 52 50 51 54 52 51 46 56
57 57 58 58 61 61 62 63 63 63 65 67 69 71 72 76 81 80 83 85 85 70 86 84 81 81 80 79 79 77 70 73 72 57 56 66 59 49 54 54 59 57 54
Wind_Direction
220 249 253 244 250 251 264 262 242 245 260 270 283 251 275 265 274 279 277 279 273 273 276 282 285 286 284 282 289 286 306 279 284 277 277 274 271 279 302 335 295 334 267
237 251 230 238 240 262 237 239 271 254 266 262 283 282 289 287 282 278 280 278 279 288 277 282 284 286 284 289 283 282 278 280 272 296 278 270 271 270 303 335 327 268 321
218 252 231 239 254 232 261 244 244 264 270 259 284 281 286 279 275 280 282 282 283 278 285 286 285 284 284 286 282 282 286 289 284 282 284 272 282 271 274 268 268 297 309
246 240 250 238 251 230 233 242 246 251 273 261 282 278 258 275 276 280 286 283 279 276 280 283 281 281 279 278 281 283 284 283 281 281 281 281 289 275 274 273 282 264 286
242 237 242 246 243 236 237 238 245 264 257 269 284 289 281 280 278 279 287 274 286 279 279 281 281 285 279 279 278 281 280 280 289 295 278 276 275 277 273 275 270 273 264
241 241 240 240 243 249 240 242 249 254 259 263 265 279 276 284 280 278 288 280 287 276 278 280 284 283 279 277 278 277 278 279 286 289 277 274 280 281 294 277 286 279 283
237 249 237 237 239 259 241 247 253 261 269 271 276 277 280 287 289 291 292 294 297 295 278 275 297 283 292 284 280 287 287 283 279 277 282 287 296 294 286 286 285 285 278
246 241 249 250 229 239 244 252 256 263 269 273 280 283 286 287 287 290 290 293 278 286 296 299 294 296 293 291 287 281 288 279 285 290 300 297 294 291 284 277 275 275 275
249 232 254 254 252 258 245 251 258 264 270 276 278 283 282 281 285 284 289 293 293 293 295 296 295 295 294 294 294 296 293 295 286 308 291 283 282 292 288 276 277 278 276
232 235 240 236 241 259 248 254 259 267 273 275 278 281 283 275 275 286 288 291 291 291 293 292 292 279 296 297 300 293 290 267 294 303 290 268 292 289 287 282 271 277 275
248 251 243 253 250 253 254 256 262 270 274 271 279 279 282 281 285 283 286 284 288 287 288 288 288 295 298 297 295 291 296 294 283 287 272 294 282 288 272 273 269 276 273
248 251 254 253 247 243 254 263 269 271 276 276 277 276 277 280 286 285 281 283 291 278 292 290 294 296 297 290 299 294 297 266 259 282 293 285 274 286 283 281 277 272 271
248 249 245 253 251 253 262 265 269 268 272 272 273 275 281 281 283 285 279 289 288 294 278 292 284 298 280 286 301 257 296 291 304 275 277 283 289 287 289 285 280 276 276
246 249 247 254 259 260 263 265 269 270 269 272 276 278 281 283 284 278 289 274 278 294 290 297 298 298 281 274 308 282 276 278 290 307 298 287 303 299 291 286 278 271 268
240 247 251 249 258 265 261 268 273 269 268 272 275 310 280 275 295 306 279 292 291 276 300 269 299 294 255 289 240 269 267 313 275 302 314 321 306 299 257 295 287 282 271
245 247 253 254 257 261 262 266 269 270 291 314 281 305 286 281 299 302 294 296 290 293 295 275 295 287 278 286 277 268 286 315 263 317 322 325 315 301 296 308 300 286 291
245 247 247 245 276 261 301 298 290 307 297 285 299 288 293 292 291 289 290 289 291 292 291 287 281 297 297 266 267 311 276 314 321 317 322 277 313 318 311 309 291 286 286
244 251 263 266 266 271 262 273 271 272 272 279 286 283 288 288 289 288 288 290 292 293 295 295 298 293 285 285 281 309 307 315 319 314 320 321 316 309 309 308 312 312 284
253 261 278 299 284 287 286 286 285 274 278 287 280 280 282 283 285 286 288 292 291 292 292 290 288 291 304 307 306 306 307 313 313 310 318 317 311 307 300 311 299 299 309
252 270 277 286 259 286 268 267 269 271 273 277 280 281 282 283 286 287 289 289 290 292 288 286 298 302 304 305 304 305 309 311 313 306 313 298 306 301 298 296 292 295 286
270 284 283 283 260 260 267 274 272 271 276 277 278 280 281 284 285 288 289 288 288 291 293 300 299 299 300 302 303 305 308 309 310 306 309 307 302 292 293 296 300 287 284
254 254 270 261 264 266 268 270 272 275 272 275 280 279 282 283 285 286 288 288 289 290 293 296 297 298 300 303 303 305 307 304 305 303 303 305 297 290 289 284 286 285 279
253 255 261 262 266 268 269 266 270 272 274 276 279 280 281 283 285 285 286 287 288 289 293 295 297 299 301 302 303 303 302 301 301 300 297 302 291 283 281 285 289 273 281
250 252 259 262 264 263 263 267 270 273 273 273 278 280 282 281 283 284 287 285 287 291 294 296 298 299 300 301 301 299 299 298 298 299 300 299 286 291 280 284 277 274 279
256 257 260 262 261 262 266 268 272 275 275 276 281 279 280 279 283 281 285 287 289 291 294 296 297 299 299 298 299 298 298 294 296 297 293 282 278 280 278 281 278 274 279
255 258 261 260 264 267 268 269 271 272 273 274 276 278 281 280 282 287 286 286 289 294 293 296 299 298 297 297 296 297 294 296 297 290 287 292 289 276 283 278 286 280 278